Time,TemperatureF,DewpointF,PressureIn,WindDirection,WindDirectionDegrees,WindSpeedMPH,WindSpeedGustMPH,Humidity,HourlyPrecipIn,Conditions,Clouds,dailyrainin,SoftwareType,DateUTC
2013-10-06 00:01:00,60.4,58.0,29.87,NW,319,3.0,10.0,92,0.00,,,0.00,WUHU216DAVISVP2,2013-10-06 05:01:00,
2013-10-06 00:06:00,60.2,58.1,29.85,NNW,339,3.0,6.0,93,0.00,,,0.00,WUHU216DAVISVP2,2013-10-06 05:06:00,
2013-10-06 00:11:00,60.1,58.0,29.86,WNW,283,4.0,6.0,93,0.00,,,0.00,WUHU216DAVISVP2,2013-10-06 05:11:00,
2013-10-06 00:16:00,60.0,58.2,29.85,NW,304,2.0,5.0,94,0.00,,,0.00,WUHU216DAVISVP2,2013-10-06 05:16:00,
2013-10-06 00:21:00,60.0,58.2,29.87,WNW,287,2.0,6.0,94,0.00,,,0.00,WUHU216DAVISVP2,2013-10-06 05:21:00,
2013-10-06 00:26:00,59.9,57.8,29.87,WNW,282,6.0,7.0,93,0.00,,,0.00,WUHU216DAVISVP2,2013-10-06 05:26:00,
2013-10-06 00:31:00,59.6,57.5,29.88,SW,224,4.0,8.0,93,0.00,,,0.00,WUHU216DAVISVP2,2013-10-06 05:31:00,
2013-10-06 00:36:00,59.3,56.9,29.86,West,266,4.0,10.0,92,0.00,,,0.00,WUHU216DAVISVP2,2013-10-06 05:36:00,
2013-10-06 00:41:00,59.2,56.8,29.86,West,269,4.0,10.0,92,0.00,,,0.00,WUHU216DAVISVP2,2013-10-06 05:41:00,
2013-10-06 00:46:00,58.5,55.2,29.85,West,261,2.0,9.0,89,0.00,,,0.00,WUHU216DAVISVP2,2013-10-06 05:46:00,
2013-10-06 00:51:00,58.0,55.4,29.84,North,7,4.0,9.0,91,0.00,,,0.00,WUHU216DAVISVP2,2013-10-06 05:51:00,
2013-10-06 00:56:00,58.0,55.7,29.83,ENE,69,5.0,9.0,92,0.00,,,0.00,WUHU216DAVISVP2,2013-10-06 05:56:00,
2013-10-06 01:01:00,57.8,55.5,29.82,NNW,330,5.0,9.0,92,0.00,,,0.00,WUHU216DAVISVP2,2013-10-06 06:01:00,
2013-10-06 01:06:00,57.8,55.7,29.83,West,262,3.0,9.0,93,0.00,,,0.00,WUHU216DAVISVP2,2013-10-06 06:06:00,
2013-10-06 01:11:00,57.7,55.7,29.86,West,267,2.0,6.0,93,0.00,,,0.00,WUHU216DAVISVP2,2013-10-06 06:11:00,
2013-10-06 01:16:00,57.5,55.2,29.86,West,278,5.0,7.0,92,0.00,,,0.00,WUHU216DAVISVP2,2013-10-06 06:16:00,
2013-10-06 01:21:00,57.3,55.0,29.86,SW,236,2.0,7.0,92,0.00,,,0.00,WUHU216DAVISVP2,2013-10-06 06:21:00,
2013-10-06 01:26:00,57.1,54.8,29.86,West,280,4.0,9.0,92,0.00,,,0.00,WUHU216DAVISVP2,2013-10-06 06:26:00,
2013-10-06 01:31:00,57.0,54.4,29.87,WNW,284,1.0,9.0,91,0.00,,,0.00,WUHU216DAVISVP2,2013-10-06 06:31:00,
2013-10-06 01:36:00,56.8,53.9,29.87,West,281,1.0,7.0,90,0.00,,,0.00,WUHU216DAVISVP2,2013-10-06 06:36:00,
2013-10-06 01:41:00,56.6,53.1,29.88,WNW,285,2.0,7.0,88,0.00,,,0.00,WUHU216DAVISVP2,2013-10-06 06:41:00,
2013-10-06 01:46:00,56.6,53.1,29.88,West,274,3.0,7.0,88,0.00,,,0.00,WUHU216DAVISVP2,2013-10-06 06:46:00,
2013-10-06 01:51:00,56.6,53.1,29.88,WSW,248,1.0,6.0,88,0.00,,,0.00,WUHU216DAVISVP2,2013-10-06 06:51:00,
2013-10-06 01:56:00,56.5,52.7,29.87,NW,311,2.0,6.0,87,0.00,,,0.00,WUHU216DAVISVP2,2013-10-06 06:56:00,
2013-10-06 02:01:00,56.4,52.9,29.86,West,279,1.0,6.0,88,0.00,,,0.00,WUHU216DAVISVP2,2013-10-06 07:01:00,
2013-10-06 02:06:00,56.3,52.5,29.87,WNW,290,3.0,6.0,87,0.00,,,0.00,WUHU216DAVISVP2,2013-10-06 07:06:00,
2013-10-06 02:11:00,56.2,52.7,29.87,NNW,336,2.0,6.0,88,0.00,,,0.00,WUHU216DAVISVP2,2013-10-06 07:11:00,
2013-10-06 02:16:00,56.1,52.6,29.87,WNW,300,0.0,6.0,88,0.00,,,0.00,WUHU216DAVISVP2,2013-10-06 07:16:00,
2013-10-06 02:21:00,56.1,52.6,29.88,WNW,300,2.0,6.0,88,0.00,,,0.00,WUHU216DAVISVP2,2013-10-06 07:21:00,
2013-10-06 02:26:00,56.0,52.5,29.88,NW,325,7.0,7.0,88,0.00,,,0.00,WUHU216DAVISVP2,2013-10-06 07:26:00,
2013-10-06 02:31:00,56.0,52.8,29.88,West,279,4.0,7.0,89,0.00,,,0.00,WUHU216DAVISVP2,2013-10-06 07:31:00,
2013-10-06 02:36:00,56.0,52.5,29.88,NW,307,0.0,7.0,88,0.00,,,0.00,WUHU216DAVISVP2,2013-10-06 07:36:00,
2013-10-06 02:41:00,56.0,52.8,29.88,West,278,1.0,6.0,89,0.00,,,0.00,WUHU216DAVISVP2,2013-10-06 07:41:00,
2013-10-06 02:46:00,56.0,52.8,29.88,NW,319,4.0,7.0,89,0.00,,,0.00,WUHU216DAVISVP2,2013-10-06 07:46:00,
2013-10-06 02:51:00,56.0,52.8,29.89,WSW,250,1.0,7.0,89,0.00,,,0.00,WUHU216DAVISVP2,2013-10-06 07:51:00,
2013-10-06 02:56:00,55.9,52.7,29.88,West,281,1.0,6.0,89,0.00,,,0.00,WUHU216DAVISVP2,2013-10-06 07:56:00,
2013-10-06 03:01:00,56.0,52.8,29.89,West,280,6.0,6.0,89,0.00,,,0.00,WUHU216DAVISVP2,2013-10-06 08:01:00,
2013-10-06 03:06:00,56.0,52.8,29.89,WNW,293,2.0,6.0,89,0.00,,,0.00,WUHU216DAVISVP2,2013-10-06 08:06:00,
2013-10-06 03:11:00,56.0,52.8,29.88,NNW,329,2.0,6.0,89,0.00,,,0.00,WUHU216DAVISVP2,2013-10-06 08:11:00,
2013-10-06 03:16:00,56.0,53.1,29.88,WNW,295,2.0,5.0,90,0.00,,,0.00,WUHU216DAVISVP2,2013-10-06 08:16:00,
2013-10-06 03:21:00,56.0,52.8,29.87,West,278,2.0,5.0,89,0.00,,,0.00,WUHU216DAVISVP2,2013-10-06 08:21:00,
2013-10-06 03:26:00,55.9,53.0,29.87,NW,323,2.0,5.0,90,0.00,,,0.00,WUHU216DAVISVP2,2013-10-06 08:26:00,
2013-10-06 03:31:00,55.9,53.0,29.86,NW,309,0.0,4.0,90,0.00,,,0.00,WUHU216DAVISVP2,2013-10-06 08:31:00,
2013-10-06 03:36:00,55.8,52.9,29.87,NNW,347,3.0,4.0,90,0.00,,,0.00,WUHU216DAVISVP2,2013-10-06 08:36:00,
2013-10-06 03:41:00,55.7,52.8,29.87,WNW,283,0.0,3.0,90,0.00,,,0.00,WUHU216DAVISVP2,2013-10-06 08:41:00,
2013-10-06 03:46:00,55.7,52.8,29.86,NW,316,3.0,4.0,90,0.00,,,0.00,WUHU216DAVISVP2,2013-10-06 08:46:00,
2013-10-06 03:51:00,55.7,53.1,29.86,West,259,1.0,4.0,91,0.00,,,0.00,WUHU216DAVISVP2,2013-10-06 08:51:00,
2013-10-06 03:56:00,55.7,52.8,29.87,West,279,1.0,3.0,90,0.00,,,0.00,WUHU216DAVISVP2,2013-10-06 08:56:00,
2013-10-06 04:01:00,55.7,53.1,29.87,West,278,2.0,4.0,91,0.00,,,0.00,WUHU216DAVISVP2,2013-10-06 09:01:00,
2013-10-06 04:06:00,55.7,53.1,29.88,WNW,285,2.0,4.0,91,0.00,,,0.00,WUHU216DAVISVP2,2013-10-06 09:06:00,
2013-10-06 04:09:00,55.7,52.8,29.88,WNW,301,2.0,3.0,90,0.00,,,0.00,WUHU216DAVISVP2,2013-10-06 09:09:00,
2013-10-06 04:14:00,55.7,52.8,29.87,WNW,293,3.0,5.0,90,0.00,,,0.00,WUHU216DAVISVP2,2013-10-06 09:14:00,
2013-10-06 04:19:00,55.8,52.9,29.87,NW,326,1.0,5.0,90,0.00,,,0.00,WUHU216DAVISVP2,2013-10-06 09:19:00,
2013-10-06 04:24:00,55.7,52.8,29.86,WNW,297,1.0,3.0,90,0.00,,,0.00,WUHU216DAVISVP2,2013-10-06 09:24:00,
2013-10-06 04:29:00,55.8,53.2,29.86,NW,314,0.0,3.0,91,0.00,,,0.00,WUHU216DAVISVP2,2013-10-06 09:29:00,
2013-10-06 04:34:00,55.7,52.8,29.87,WNW,290,3.0,4.0,90,0.00,,,0.00,WUHU216DAVISVP2,2013-10-06 09:34:00,
2013-10-06 04:39:00,55.7,52.8,29.86,NW,312,0.0,4.0,90,0.00,,,0.00,WUHU216DAVISVP2,2013-10-06 09:39:00,
2013-10-06 04:44:00,55.7,53.1,29.86,NNW,348,0.0,3.0,91,0.00,,,0.00,WUHU216DAVISVP2,2013-10-06 09:44:00,
2013-10-06 04:49:00,55.6,52.7,29.85,ENE,74,0.0,2.0,90,0.00,,,0.00,WUHU216DAVISVP2,2013-10-06 09:49:00,
2013-10-06 04:54:00,55.6,53.0,29.86,WSW,255,0.0,1.0,91,0.00,,,0.00,WUHU216DAVISVP2,2013-10-06 09:54:00,
2013-10-06 04:59:00,55.6,53.0,29.87,WSW,239,1.0,2.0,91,0.00,,,0.00,WUHU216DAVISVP2,2013-10-06 09:59:00,
2013-10-06 05:04:00,55.6,53.3,29.87,SW,235,2.0,3.0,92,0.00,,,0.00,WUHU216DAVISVP2,2013-10-06 10:04:00,
2013-10-06 05:09:00,55.6,53.0,29.87,WSW,252,1.0,3.0,91,0.00,,,0.00,WUHU216DAVISVP2,2013-10-06 10:09:00,
2013-10-06 05:14:00,55.5,52.9,29.86,SW,215,1.0,3.0,91,0.00,,,0.00,WUHU216DAVISVP2,2013-10-06 10:14:00,
2013-10-06 05:19:00,55.5,52.9,29.86,West,268,0.0,3.0,91,0.00,,,0.00,WUHU216DAVISVP2,2013-10-06 10:19:00,
2013-10-06 05:24:00,55.4,53.1,29.86,SW,226,1.0,2.0,92,0.00,,,0.00,WUHU216DAVISVP2,2013-10-06 10:24:00,
2013-10-06 05:29:00,55.4,53.1,29.86,SW,225,1.0,2.0,92,0.00,,,0.00,WUHU216DAVISVP2,2013-10-06 10:29:00,
2013-10-06 05:34:00,55.3,53.0,29.86,SW,231,1.0,3.0,92,0.00,,,0.00,WUHU216DAVISVP2,2013-10-06 10:34:00,
2013-10-06 05:39:00,55.3,53.0,29.86,SW,225,2.0,3.0,92,0.00,,,0.00,WUHU216DAVISVP2,2013-10-06 10:39:00,
2013-10-06 05:44:00,55.2,52.9,29.86,WSW,240,0.0,2.0,92,0.00,,,0.00,WUHU216DAVISVP2,2013-10-06 10:44:00,
2013-10-06 05:49:00,55.2,52.9,29.86,WSW,256,0.0,2.0,92,0.00,,,0.00,WUHU216DAVISVP2,2013-10-06 10:49:00,
2013-10-06 05:54:00,55.2,53.2,29.87,SW,216,1.0,2.0,93,0.00,,,0.00,WUHU216DAVISVP2,2013-10-06 10:54:00,
2013-10-06 05:59:00,55.1,52.8,29.87,SSW,205,1.0,3.0,92,0.00,,,0.00,WUHU216DAVISVP2,2013-10-06 10:59:00,
2013-10-06 06:04:00,55.0,53.0,29.87,SSW,207,1.0,3.0,93,0.00,,,0.00,WUHU216DAVISVP2,2013-10-06 11:04:00,
2013-10-06 06:09:00,54.9,52.9,29.87,SW,222,0.0,2.0,93,0.00,,,0.00,WUHU216DAVISVP2,2013-10-06 11:09:00,
2013-10-06 06:14:00,54.8,52.8,29.87,SSW,205,1.0,2.0,93,0.00,,,0.00,WUHU216DAVISVP2,2013-10-06 11:14:00,
2013-10-06 06:19:00,54.7,52.7,29.87,SSW,200,1.0,2.0,93,0.00,,,0.00,WUHU216DAVISVP2,2013-10-06 11:19:00,
2013-10-06 06:24:00,54.7,52.7,29.87,SSW,210,1.0,2.0,93,0.00,,,0.00,WUHU216DAVISVP2,2013-10-06 11:24:00,
2013-10-06 06:29:00,54.7,52.7,29.87,SW,215,1.0,2.0,93,0.00,,,0.00,WUHU216DAVISVP2,2013-10-06 11:29:00,
2013-10-06 06:34:00,54.6,52.6,29.87,SSW,212,2.0,2.0,93,0.00,,,0.00,WUHU216DAVISVP2,2013-10-06 11:34:00,
2013-10-06 06:39:00,54.5,52.5,29.87,SSW,212,0.0,2.0,93,0.00,,,0.00,WUHU216DAVISVP2,2013-10-06 11:39:00,
2013-10-06 06:44:00,54.5,52.8,29.87,SW,214,0.0,2.0,94,0.00,,,0.00,WUHU216DAVISVP2,2013-10-06 11:44:00,
2013-10-06 06:49:00,54.3,52.6,29.87,SW,216,2.0,2.0,94,0.00,,,0.00,WUHU216DAVISVP2,2013-10-06 11:49:00,
2013-10-06 06:54:00,54.2,52.5,29.87,SW,215,1.0,2.0,94,0.00,,,0.00,WUHU216DAVISVP2,2013-10-06 11:54:00,
2013-10-06 06:59:00,54.1,52.4,29.86,SW,236,2.0,2.0,94,0.00,,,0.00,WUHU216DAVISVP2,2013-10-06 11:59:00,
2013-10-06 07:04:00,54.1,52.4,29.86,SSW,212,2.0,2.0,94,0.00,,,0.00,WUHU216DAVISVP2,2013-10-06 12:04:00,
2013-10-06 07:09:00,54.0,52.3,29.86,SW,219,3.0,3.0,94,0.00,,,0.00,WUHU216DAVISVP2,2013-10-06 12:09:00,
2013-10-06 07:14:00,54.0,52.3,29.86,SSW,212,1.0,3.0,94,0.00,,,0.00,WUHU216DAVISVP2,2013-10-06 12:14:00,
2013-10-06 07:19:00,53.9,52.2,29.86,SSW,203,1.0,3.0,94,0.00,,,0.00,WUHU216DAVISVP2,2013-10-06 12:19:00,
2013-10-06 07:24:00,53.8,52.1,29.86,South,181,0.0,3.0,94,0.00,,,0.00,WUHU216DAVISVP2,2013-10-06 12:24:00,
2013-10-06 07:29:00,53.9,52.2,29.87,SSW,205,2.0,4.0,94,0.00,,,0.00,WUHU216DAVISVP2,2013-10-06 12:29:00,
2013-10-06 07:34:00,53.9,52.2,29.87,SW,227,2.0,4.0,94,0.00,,,0.00,WUHU216DAVISVP2,2013-10-06 12:34:00,
2013-10-06 07:39:00,54.0,52.3,29.87,SSW,204,3.0,3.0,94,0.00,,,0.00,WUHU216DAVISVP2,2013-10-06 12:39:00,
2013-10-06 07:44:00,54.0,52.3,29.86,SSW,205,1.0,4.0,94,0.00,,,0.00,WUHU216DAVISVP2,2013-10-06 12:44:00,
2013-10-06 07:49:00,54.0,52.3,29.86,SSW,200,3.0,4.0,94,0.00,,,0.00,WUHU216DAVISVP2,2013-10-06 12:49:00,
2013-10-06 07:54:00,54.1,52.4,29.86,SSW,205,3.0,5.0,94,0.00,,,0.00,WUHU216DAVISVP2,2013-10-06 12:54:00,
2013-10-06 07:59:00,54.2,52.5,29.86,SW,215,3.0,5.0,94,0.00,,,0.00,WUHU216DAVISVP2,2013-10-06 12:59:00,
2013-10-06 08:04:00,54.2,52.5,29.86,SSW,199,3.0,5.0,94,0.00,,,0.00,WUHU216DAVISVP2,2013-10-06 13:04:00,
2013-10-06 08:09:00,54.3,52.6,29.86,SSW,200,2.0,5.0,94,0.00,,,0.00,WUHU216DAVISVP2,2013-10-06 13:09:00,
2013-10-06 08:14:00,54.3,52.6,29.86,SSW,210,4.0,5.0,94,0.00,,,0.00,WUHU216DAVISVP2,2013-10-06 13:14:00,
2013-10-06 08:19:00,54.3,52.6,29.86,SW,216,5.0,5.0,94,0.00,,,0.00,WUHU216DAVISVP2,2013-10-06 13:19:00,
2013-10-06 08:24:00,54.3,52.3,29.86,SSW,193,3.0,7.0,93,0.00,,,0.00,WUHU216DAVISVP2,2013-10-06 13:24:00,
2013-10-06 08:29:00,54.3,51.7,29.86,SSW,211,1.0,7.0,91,0.00,,,0.00,WUHU216DAVISVP2,2013-10-06 13:29:00,
2013-10-06 08:34:00,54.4,51.8,29.86,SSW,198,2.0,7.0,91,0.00,,,0.00,WUHU216DAVISVP2,2013-10-06 13:34:00,
2013-10-06 08:39:00,54.4,51.8,29.86,SSW,210,5.0,8.0,91,0.00,,,0.00,WUHU216DAVISVP2,2013-10-06 13:39:00,
2013-10-06 08:44:00,54.4,51.5,29.86,WSW,252,3.0,8.0,90,0.00,,,0.00,WUHU216DAVISVP2,2013-10-06 13:44:00,
2013-10-06 08:49:00,54.5,51.3,29.86,SSW,200,4.0,8.0,89,0.00,,,0.00,WUHU216DAVISVP2,2013-10-06 13:49:00,
2013-10-06 08:54:00,54.5,51.6,29.86,WSW,253,7.0,8.0,90,0.00,,,0.00,WUHU216DAVISVP2,2013-10-06 13:54:00,
2013-10-06 08:59:00,54.5,51.0,29.86,WSW,243,3.0,8.0,88,0.00,,,0.00,WUHU216DAVISVP2,2013-10-06 13:59:00,
2013-10-06 09:04:00,54.7,51.5,29.86,WSW,240,3.0,6.0,89,0.00,,,0.00,WUHU216DAVISVP2,2013-10-06 14:04:00,
2013-10-06 09:09:00,54.9,51.1,29.86,SW,227,5.0,6.0,87,0.00,,,0.00,WUHU216DAVISVP2,2013-10-06 14:09:00,
2013-10-06 09:14:00,55.3,51.2,29.86,SSW,210,4.0,8.0,86,0.00,,,0.00,WUHU216DAVISVP2,2013-10-06 14:14:00,
2013-10-06 09:19:00,55.5,51.1,29.85,WSW,250,3.0,8.0,85,0.00,,,0.00,WUHU216DAVISVP2,2013-10-06 14:19:00,
2013-10-06 09:24:00,55.8,50.4,29.85,SW,229,5.0,11.0,82,0.00,,,0.00,WUHU216DAVISVP2,2013-10-06 14:24:00,
2013-10-06 09:29:00,56.4,51.0,29.85,SW,217,7.0,11.0,82,0.00,,,0.00,WUHU216DAVISVP2,2013-10-06 14:29:00,
2013-10-06 09:34:00,56.6,50.5,29.86,SSW,209,8.0,11.0,80,0.00,,,0.00,WUHU216DAVISVP2,2013-10-06 14:34:00,
2013-10-06 09:39:00,56.9,50.5,29.86,SSW,203,5.0,11.0,79,0.00,,,0.00,WUHU216DAVISVP2,2013-10-06 14:39:00,
2013-10-06 09:44:00,57.3,50.2,29.86,WSW,255,4.0,9.0,77,0.00,,,0.00,WUHU216DAVISVP2,2013-10-06 14:44:00,
2013-10-06 09:49:00,57.6,50.5,29.85,SSW,201,7.0,9.0,77,0.00,,,0.00,WUHU216DAVISVP2,2013-10-06 14:49:00,
2013-10-06 09:54:00,57.9,49.0,29.86,SW,220,3.0,8.0,72,0.00,,,0.00,WUHU216DAVISVP2,2013-10-06 14:54:00,
2013-10-06 09:59:00,58.4,49.5,29.85,SW,220,8.0,9.0,72,0.00,,,0.00,WUHU216DAVISVP2,2013-10-06 14:59:00,
2013-10-06 10:04:00,58.6,48.2,29.85,SW,233,4.0,9.0,68,0.00,,,0.00,WUHU216DAVISVP2,2013-10-06 15:04:00,
2013-10-06 10:09:00,58.9,48.0,29.85,SW,225,7.0,9.0,67,0.00,,,0.00,WUHU216DAVISVP2,2013-10-06 15:09:00,
2013-10-06 10:14:00,59.1,46.9,29.85,SW,219,3.0,8.0,64,0.00,,,0.00,WUHU216DAVISVP2,2013-10-06 15:14:00,
2013-10-06 10:19:00,59.3,47.3,29.85,SW,228,5.0,13.0,64,0.00,,,0.00,WUHU216DAVISVP2,2013-10-06 15:19:00,
2013-10-06 10:24:00,59.6,47.6,29.85,SSW,210,4.0,13.0,64,0.00,,,0.00,WUHU216DAVISVP2,2013-10-06 15:24:00,
2013-10-06 10:29:00,59.7,47.1,29.85,WSW,247,7.0,12.0,63,0.00,,,0.00,WUHU216DAVISVP2,2013-10-06 15:29:00,
2013-10-06 10:34:00,60.2,45.9,29.85,SW,229,4.0,12.0,59,0.00,,,0.00,WUHU216DAVISVP2,2013-10-06 15:34:00,
2013-10-06 10:39:00,60.4,46.1,29.85,SSW,209,10.0,13.0,59,0.00,,,0.00,WUHU216DAVISVP2,2013-10-06 15:39:00,
2013-10-06 10:44:00,60.4,45.2,29.85,SW,216,9.0,13.0,57,0.00,,,0.00,WUHU216DAVISVP2,2013-10-06 15:44:00,
2013-10-06 10:49:00,61.0,44.8,29.85,WSW,238,9.0,12.0,55,0.00,,,0.00,WUHU216DAVISVP2,2013-10-06 15:49:00,
2013-10-06 10:54:00,60.9,43.7,29.85,SSW,202,5.0,13.0,53,0.00,,,0.00,WUHU216DAVISVP2,2013-10-06 15:54:00,
2013-10-06 10:59:00,60.9,44.7,29.85,SSE,165,3.0,13.0,55,0.00,,,0.00,WUHU216DAVISVP2,2013-10-06 15:59:00,
2013-10-06 11:04:00,61.2,44.5,29.85,WSW,258,7.0,12.0,54,0.00,,,0.00,WUHU216DAVISVP2,2013-10-06 16:04:00,
2013-10-06 11:09:00,61.2,44.5,29.85,SW,224,10.0,11.0,54,0.00,,,0.00,WUHU216DAVISVP2,2013-10-06 16:09:00,
2013-10-06 11:14:00,61.2,43.5,29.85,SSW,197,6.0,14.0,52,0.00,,,0.00,WUHU216DAVISVP2,2013-10-06 16:14:00,
2013-10-06 11:19:00,61.2,44.4,29.84,SSW,209,11.0,18.0,54,0.00,,,0.00,WUHU216DAVISVP2,2013-10-06 16:19:00,
2013-10-06 11:24:00,61.4,43.6,29.84,SSW,202,10.0,18.0,52,0.00,,,0.00,WUHU216DAVISVP2,2013-10-06 16:24:00,
2013-10-06 11:29:00,61.5,44.2,29.84,SW,235,13.0,13.0,53,0.00,,,0.00,WUHU216DAVISVP2,2013-10-06 16:29:00,
2013-10-06 11:34:00,61.7,44.4,29.83,SSW,200,10.0,14.0,53,0.00,,,0.00,WUHU216DAVISVP2,2013-10-06 16:34:00,
2013-10-06 11:39:00,61.8,42.4,29.83,NW,321,4.0,14.0,49,0.00,,,0.00,WUHU216DAVISVP2,2013-10-06 16:39:00,
2013-10-06 11:44:00,61.8,43.5,29.83,SW,224,7.0,11.0,51,0.00,,,0.00,WUHU216DAVISVP2,2013-10-06 16:44:00,
2013-10-06 11:49:00,62.4,45.1,29.84,West,275,5.0,11.0,53,0.00,,,0.00,WUHU216DAVISVP2,2013-10-06 16:49:00,
2013-10-06 11:54:00,62.7,44.3,29.83,WSW,253,6.0,11.0,51,0.00,,,0.00,WUHU216DAVISVP2,2013-10-06 16:54:00,
2013-10-06 11:59:00,62.7,44.8,29.84,West,278,11.0,12.0,52,0.00,,,0.00,WUHU216DAVISVP2,2013-10-06 16:59:00,
2013-10-06 12:04:00,62.9,45.1,29.84,WNW,287,6.0,14.0,52,0.00,,,0.00,WUHU216DAVISVP2,2013-10-06 17:04:00,
2013-10-06 12:09:00,63.1,45.8,29.84,SW,229,8.0,14.0,53,0.00,,,0.00,WUHU216DAVISVP2,2013-10-06 17:09:00,
2013-10-06 12:14:00,63.2,43.7,29.84,West,259,5.0,13.0,49,0.00,,,0.00,WUHU216DAVISVP2,2013-10-06 17:14:00,
2013-10-06 12:19:00,62.9,44.0,29.84,SW,221,8.0,17.0,50,0.00,,,0.00,WUHU216DAVISVP2,2013-10-06 17:19:00,
2013-10-06 12:24:00,63.2,45.3,29.84,WSW,250,7.0,17.0,52,0.00,,,0.00,WUHU216DAVISVP2,2013-10-06 17:24:00,
2013-10-06 12:29:00,63.4,45.0,29.84,WNW,290,11.0,12.0,51,0.00,,,0.00,WUHU216DAVISVP2,2013-10-06 17:29:00,
2013-10-06 12:34:00,63.5,46.1,29.84,SSW,213,11.0,15.0,53,0.00,,,0.00,WUHU216DAVISVP2,2013-10-06 17:34:00,
2013-10-06 12:39:00,63.3,44.9,29.84,West,276,7.0,16.0,51,0.00,,,0.00,WUHU216DAVISVP2,2013-10-06 17:39:00,
2013-10-06 12:44:00,63.5,45.6,29.83,West,267,8.0,16.0,52,0.00,,,0.00,WUHU216DAVISVP2,2013-10-06 17:44:00,
2013-10-06 12:49:00,63.6,46.7,29.84,WNW,283,2.0,13.0,54,0.00,,,0.00,WUHU216DAVISVP2,2013-10-06 17:49:00,
2013-10-06 12:54:00,63.0,45.7,29.83,SSW,200,7.0,12.0,53,0.00,,,0.00,WUHU216DAVISVP2,2013-10-06 17:54:00,
2013-10-06 12:59:00,63.5,45.1,29.83,SSW,210,5.0,12.0,51,0.00,,,0.00,WUHU216DAVISVP2,2013-10-06 17:59:00,
2013-10-06 13:04:00,63.6,44.6,29.83,SSW,205,12.0,12.0,50,0.00,,,0.00,WUHU216DAVISVP2,2013-10-06 18:04:00,
2013-10-06 13:09:00,63.6,45.2,29.83,WNW,285,6.0,12.0,51,0.00,,,0.00,WUHU216DAVISVP2,2013-10-06 18:09:00,
2013-10-06 13:14:00,64.0,45.0,29.83,WSW,257,11.0,13.0,50,0.00,,,0.00,WUHU216DAVISVP2,2013-10-06 18:14:00,
2013-10-06 13:19:00,63.7,44.2,29.83,SSE,154,2.0,18.0,49,0.00,,,0.00,WUHU216DAVISVP2,2013-10-06 18:19:00,
2013-10-06 13:24:00,63.5,44.5,29.83,SSW,213,6.0,18.0,50,0.00,,,0.00,WUHU216DAVISVP2,2013-10-06 18:24:00,
2013-10-06 13:29:00,64.1,46.7,29.83,SW,221,3.0,14.0,53,0.00,,,0.00,WUHU216DAVISVP2,2013-10-06 18:29:00,
2013-10-06 13:34:00,63.7,44.7,29.83,SW,236,11.0,13.0,50,0.00,,,0.00,WUHU216DAVISVP2,2013-10-06 18:34:00,
2013-10-06 13:39:00,62.6,44.3,29.83,WSW,252,7.0,13.0,51,0.00,,,0.00,WUHU216DAVISVP2,2013-10-06 18:39:00,
2013-10-06 13:44:00,62.4,45.1,29.83,West,276,6.0,10.0,53,0.00,,,0.00,WUHU216DAVISVP2,2013-10-06 18:44:00,
2013-10-06 13:49:00,62.6,44.8,29.82,WNW,291,6.0,15.0,52,0.00,,,0.00,WUHU216DAVISVP2,2013-10-06 18:49:00,
2013-10-06 13:54:00,63.0,45.1,29.82,WNW,285,5.0,15.0,52,0.00,,,0.00,WUHU216DAVISVP2,2013-10-06 18:54:00,
2013-10-06 13:59:00,63.1,45.2,29.82,SSW,211,2.0,14.0,52,0.00,,,0.00,WUHU216DAVISVP2,2013-10-06 18:59:00,
2013-10-06 14:04:00,63.3,44.9,29.82,WSW,250,10.0,14.0,51,0.00,,,0.00,WUHU216DAVISVP2,2013-10-06 19:04:00,
2013-10-06 14:09:00,63.2,45.3,29.82,West,269,4.0,14.0,52,0.00,,,0.00,WUHU216DAVISVP2,2013-10-06 19:09:00,
2013-10-06 14:14:00,63.3,45.4,29.82,West,271,3.0,11.0,52,0.00,,,0.00,WUHU216DAVISVP2,2013-10-06 19:14:00,
2013-10-06 14:19:00,62.9,44.5,29.82,WSW,240,7.0,14.0,51,0.00,,,0.00,WUHU216DAVISVP2,2013-10-06 19:19:00,
2013-10-06 14:24:00,62.8,45.0,29.82,WSW,256,3.0,14.0,52,0.00,,,0.00,WUHU216DAVISVP2,2013-10-06 19:24:00,
2013-10-06 14:29:00,63.3,45.4,29.82,SW,223,8.0,13.0,52,0.00,,,0.00,WUHU216DAVISVP2,2013-10-06 19:29:00,
2013-10-06 14:34:00,63.3,44.4,29.82,WNW,298,3.0,13.0,50,0.00,,,0.00,WUHU216DAVISVP2,2013-10-06 19:34:00,
2013-10-06 14:39:00,63.7,44.2,29.83,WSW,251,5.0,15.0,49,0.00,,,0.00,WUHU216DAVISVP2,2013-10-06 19:39:00,
2013-10-06 14:44:00,63.2,43.7,29.83,WNW,290,3.0,15.0,49,0.00,,,0.00,WUHU216DAVISVP2,2013-10-06 19:44:00,
2013-10-06 14:49:00,63.0,44.6,29.83,WSW,241,6.0,15.0,51,0.00,,,0.00,WUHU216DAVISVP2,2013-10-06 19:49:00,
2013-10-06 14:54:00,62.9,44.0,29.83,SW,224,7.0,14.0,50,0.00,,,0.00,WUHU216DAVISVP2,2013-10-06 19:54:00,
2013-10-06 14:59:00,63.0,44.1,29.83,WSW,250,10.0,15.0,50,0.00,,,0.00,WUHU216DAVISVP2,2013-10-06 19:59:00,
2013-10-06 15:04:00,62.7,44.9,29.83,WNW,289,3.0,15.0,52,0.00,,,0.00,WUHU216DAVISVP2,2013-10-06 20:04:00,
2013-10-06 15:09:00,62.9,43.4,29.83,WNW,283,6.0,13.0,49,0.00,,,0.00,WUHU216DAVISVP2,2013-10-06 20:09:00,
2013-10-06 15:14:00,62.8,43.9,29.83,SSW,200,6.0,13.0,50,0.00,,,0.00,WUHU216DAVISVP2,2013-10-06 20:14:00,
2013-10-06 15:19:00,63.3,44.4,29.83,West,273,6.0,12.0,50,0.00,,,0.00,WUHU216DAVISVP2,2013-10-06 20:19:00,
2013-10-06 15:24:00,63.4,44.4,29.83,WSW,238,11.0,11.0,50,0.00,,,0.00,WUHU216DAVISVP2,2013-10-06 20:24:00,
2013-10-06 15:29:00,62.8,43.9,29.83,WNW,295,4.0,14.0,50,0.00,,,0.00,WUHU216DAVISVP2,2013-10-06 20:29:00,
2013-10-06 15:34:00,62.2,44.4,29.84,West,281,8.0,14.0,52,0.00,,,0.00,WUHU216DAVISVP2,2013-10-06 20:34:00,
2013-10-06 15:39:00,62.5,44.2,29.84,West,259,7.0,19.0,51,0.00,,,0.00,WUHU216DAVISVP2,2013-10-06 20:39:00,
2013-10-06 15:44:00,62.8,44.4,29.84,West,276,5.0,19.0,51,0.00,,,0.00,WUHU216DAVISVP2,2013-10-06 20:44:00,
2013-10-06 15:49:00,62.0,43.1,29.84,WSW,249,9.0,16.0,50,0.00,,,0.00,WUHU216DAVISVP2,2013-10-06 20:49:00,
2013-10-06 15:54:00,62.4,43.5,29.84,SW,222,7.0,18.0,50,0.00,,,0.00,WUHU216DAVISVP2,2013-10-06 20:54:00,
2013-10-06 15:59:00,62.5,44.2,29.84,WNW,302,10.0,18.0,51,0.00,,,0.00,WUHU216DAVISVP2,2013-10-06 20:59:00,
2013-10-06 16:04:00,62.3,42.9,29.84,West,259,10.0,17.0,49,0.00,,,0.00,WUHU216DAVISVP2,2013-10-06 21:04:00,
2013-10-06 16:09:00,61.5,42.7,29.84,WNW,282,6.0,17.0,50,0.00,,,0.00,WUHU216DAVISVP2,2013-10-06 21:09:00,
2013-10-06 16:14:00,61.7,43.4,29.84,WNW,284,5.0,17.0,51,0.00,,,0.00,WUHU216DAVISVP2,2013-10-06 21:14:00,
2013-10-06 16:19:00,61.4,42.1,29.84,West,277,5.0,14.0,49,0.00,,,0.00,WUHU216DAVISVP2,2013-10-06 21:19:00,
2013-10-06 16:24:00,61.4,42.6,29.84,WNW,292,8.0,14.0,50,0.00,,,0.00,WUHU216DAVISVP2,2013-10-06 21:24:00,
2013-10-06 16:29:00,61.3,42.0,29.84,West,280,7.0,14.0,49,0.00,,,0.00,WUHU216DAVISVP2,2013-10-06 21:29:00,
2013-10-06 16:34:00,60.8,42.1,29.84,WNW,286,4.0,13.0,50,0.00,,,0.00,WUHU216DAVISVP2,2013-10-06 21:34:00,
2013-10-06 16:39:00,59.8,42.2,29.84,West,264,2.0,13.0,52,0.00,,,0.00,WUHU216DAVISVP2,2013-10-06 21:39:00,
2013-10-06 16:44:00,59.4,42.3,29.84,West,268,8.0,13.0,53,0.00,,,0.00,WUHU216DAVISVP2,2013-10-06 21:44:00,
2013-10-06 16:49:00,59.9,42.3,29.84,West,278,5.0,13.0,52,0.00,,,0.00,WUHU216DAVISVP2,2013-10-06 21:49:00,
2013-10-06 16:54:00,60.3,41.6,29.85,WSW,250,6.0,16.0,50,0.00,,,0.00,WUHU216DAVISVP2,2013-10-06 21:54:00,
2013-10-06 16:59:00,60.5,42.3,29.85,WNW,290,5.0,16.0,51,0.00,,,0.00,WUHU216DAVISVP2,2013-10-06 21:59:00,
2013-10-06 17:04:00,60.9,42.1,29.85,WSW,240,7.0,16.0,50,0.00,,,0.00,WUHU216DAVISVP2,2013-10-06 22:04:00,
2013-10-06 17:09:00,60.5,42.8,29.85,SW,229,4.0,12.0,52,0.00,,,0.00,WUHU216DAVISVP2,2013-10-06 22:09:00,
2013-10-06 17:14:00,59.8,42.7,29.86,NW,321,2.0,11.0,53,0.00,,,0.00,WUHU216DAVISVP2,2013-10-06 22:14:00,
2013-10-06 17:19:00,59.2,42.6,29.86,NNW,330,6.0,11.0,54,0.00,,,0.00,WUHU216DAVISVP2,2013-10-06 22:19:00,
2013-10-06 17:24:00,58.6,43.5,29.86,WNW,302,6.0,10.0,57,0.00,,,0.00,WUHU216DAVISVP2,2013-10-06 22:24:00,
2013-10-06 17:29:00,58.3,43.2,29.86,NW,305,4.0,10.0,57,0.00,,,0.00,WUHU216DAVISVP2,2013-10-06 22:29:00,
2013-10-06 17:34:00,58.0,42.9,29.86,West,268,3.0,9.0,57,0.00,,,0.00,WUHU216DAVISVP2,2013-10-06 22:34:00,
2013-10-06 17:39:00,57.7,42.7,29.87,NW,319,2.0,9.0,57,0.00,,,0.00,WUHU216DAVISVP2,2013-10-06 22:39:00,
2013-10-06 17:44:00,57.8,42.2,29.87,NW,321,4.0,11.0,56,0.00,,,0.00,WUHU216DAVISVP2,2013-10-06 22:44:00,
2013-10-06 17:49:00,57.5,42.8,29.87,SW,226,9.0,11.0,58,0.00,,,0.00,WUHU216DAVISVP2,2013-10-06 22:49:00,
2013-10-06 17:54:00,57.4,42.3,29.88,NW,326,4.0,11.0,57,0.00,,,0.00,WUHU216DAVISVP2,2013-10-06 22:54:00,
2013-10-06 17:59:00,57.1,42.5,29.88,WNW,285,3.0,11.0,58,0.00,,,0.00,WUHU216DAVISVP2,2013-10-06 22:59:00,
2013-10-06 18:04:00,56.8,42.2,29.88,NW,304,4.0,11.0,58,0.00,,,0.00,WUHU216DAVISVP2,2013-10-06 23:04:00,
2013-10-06 18:09:00,56.6,42.5,29.88,South,185,3.0,10.0,59,0.00,,,0.00,WUHU216DAVISVP2,2013-10-06 23:09:00,
2013-10-06 18:14:00,56.4,42.4,29.88,West,269,6.0,11.0,59,0.00,,,0.00,WUHU216DAVISVP2,2013-10-06 23:14:00,
2013-10-06 18:19:00,56.3,42.7,29.89,WNW,288,3.0,11.0,60,0.00,,,0.00,WUHU216DAVISVP2,2013-10-06 23:19:00,
2013-10-06 18:24:00,56.2,42.6,29.89,WNW,284,3.0,10.0,60,0.00,,,0.00,WUHU216DAVISVP2,2013-10-06 23:24:00,
2013-10-06 18:29:00,56.1,42.1,29.89,WSW,258,6.0,9.0,59,0.00,,,0.00,WUHU216DAVISVP2,2013-10-06 23:29:00,
2013-10-06 18:34:00,56.0,42.0,29.89,WNW,297,3.0,8.0,59,0.00,,,0.00,WUHU216DAVISVP2,2013-10-06 23:34:00,
2013-10-06 18:39:00,55.9,42.3,29.89,WSW,241,1.0,7.0,60,0.00,,,0.00,WUHU216DAVISVP2,2013-10-06 23:39:00,
2013-10-06 18:44:00,55.9,42.3,29.90,NW,309,1.0,8.0,60,0.00,,,0.00,WUHU216DAVISVP2,2013-10-06 23:44:00,
2013-10-06 18:49:00,55.8,41.8,29.90,WNW,288,0.0,8.0,59,0.00,,,0.00,WUHU216DAVISVP2,2013-10-06 23:49:00,
2013-10-06 18:54:00,55.7,42.1,29.90,WNW,302,5.0,8.0,60,0.00,,,0.00,WUHU216DAVISVP2,2013-10-06 23:54:00,
2013-10-06 18:59:00,55.5,42.4,29.90,WNW,286,1.0,8.0,61,0.00,,,0.00,WUHU216DAVISVP2,2013-10-06 23:59:00,
2013-10-06 19:04:00,55.2,42.1,29.90,WSW,252,2.0,7.0,61,0.00,,,0.00,WUHU216DAVISVP2,2013-10-07 00:04:00,
2013-10-06 19:09:00,55.0,41.9,29.90,West,264,6.0,7.0,61,0.00,,,0.00,WUHU216DAVISVP2,2013-10-07 00:09:00,
2013-10-06 19:14:00,54.8,42.0,29.90,SW,236,0.0,7.0,62,0.00,,,0.00,WUHU216DAVISVP2,2013-10-07 00:14:00,
2013-10-06 19:19:00,54.5,41.9,29.91,WNW,288,2.0,6.0,62,0.00,,,0.00,WUHU216DAVISVP2,2013-10-07 00:19:00,
2013-10-06 19:24:00,54.2,42.0,29.90,WNW,283,1.0,4.0,63,0.00,,,0.00,WUHU216DAVISVP2,2013-10-07 00:24:00,
2013-10-06 19:29:00,53.9,42.0,29.90,West,280,1.0,4.0,64,0.00,,,0.00,WUHU216DAVISVP2,2013-10-07 00:29:00,
2013-10-06 19:34:00,53.6,42.2,29.90,SW,231,1.0,4.0,65,0.00,,,0.00,WUHU216DAVISVP2,2013-10-07 00:34:00,
2013-10-06 19:39:00,53.3,42.4,29.91,West,263,1.0,3.0,66,0.00,,,0.00,WUHU216DAVISVP2,2013-10-07 00:39:00,
2013-10-06 19:44:00,52.9,42.7,29.91,SW,231,1.0,2.0,68,0.00,,,0.00,WUHU216DAVISVP2,2013-10-07 00:44:00,
2013-10-06 19:49:00,52.5,42.4,29.90,WSW,238,1.0,3.0,68,0.00,,,0.00,WUHU216DAVISVP2,2013-10-07 00:49:00,
2013-10-06 19:54:00,52.3,42.5,29.90,WNW,287,2.0,3.0,69,0.00,,,0.00,WUHU216DAVISVP2,2013-10-07 00:54:00,
2013-10-06 19:59:00,52.1,42.7,29.90,WSW,254,0.0,3.0,70,0.00,,,0.00,WUHU216DAVISVP2,2013-10-07 00:59:00,
2013-10-06 20:04:00,51.8,42.8,29.90,WSW,240,0.0,3.0,71,0.00,,,0.00,WUHU216DAVISVP2,2013-10-07 01:04:00,
2013-10-06 20:09:00,51.5,42.9,29.91,WSW,238,0.0,1.0,72,0.00,,,0.00,WUHU216DAVISVP2,2013-10-07 01:09:00,
2013-10-06 20:14:00,51.1,42.8,29.91,SW,214,1.0,1.0,73,0.00,,,0.00,WUHU216DAVISVP2,2013-10-07 01:14:00,
2013-10-06 20:19:00,50.8,42.9,29.91,SW,217,1.0,1.0,74,0.00,,,0.00,WUHU216DAVISVP2,2013-10-07 01:19:00,
2013-10-06 20:24:00,50.5,42.9,29.91,SW,232,1.0,1.0,75,0.00,,,0.00,WUHU216DAVISVP2,2013-10-07 01:24:00,
2013-10-06 20:29:00,50.3,42.8,29.91,SSW,207,0.0,1.0,75,0.00,,,0.00,WUHU216DAVISVP2,2013-10-07 01:29:00,
2013-10-06 20:34:00,50.1,42.9,29.91,SW,229,0.0,1.0,76,0.00,,,0.00,WUHU216DAVISVP2,2013-10-07 01:34:00,
2013-10-06 20:39:00,49.9,42.7,29.91,WSW,252,0.0,2.0,76,0.00,,,0.00,WUHU216DAVISVP2,2013-10-07 01:39:00,
2013-10-06 20:44:00,49.8,42.9,29.91,WSW,252,0.0,2.0,77,0.00,,,0.00,WUHU216DAVISVP2,2013-10-07 01:44:00,
2013-10-06 20:49:00,49.7,42.5,29.91,SW,233,0.0,1.0,76,0.00,,,0.00,WUHU216DAVISVP2,2013-10-07 01:49:00,
2013-10-06 20:54:00,49.7,42.8,29.91,SW,221,0.0,2.0,77,0.00,,,0.00,WUHU216DAVISVP2,2013-10-07 01:54:00,
2013-10-06 20:59:00,49.4,43.2,29.91,SSW,208,1.0,2.0,79,0.00,,,0.00,WUHU216DAVISVP2,2013-10-07 01:59:00,
2013-10-06 21:04:00,49.1,42.9,29.91,SW,225,0.0,1.0,79,0.00,,,0.00,WUHU216DAVISVP2,2013-10-07 02:04:00,
2013-10-06 21:09:00,49.0,43.1,29.91,WSW,247,1.0,2.0,80,0.00,,,0.00,WUHU216DAVISVP2,2013-10-07 02:09:00,
2013-10-06 21:14:00,49.0,42.8,29.91,SW,221,2.0,2.0,79,0.00,,,0.00,WUHU216DAVISVP2,2013-10-07 02:14:00,
2013-10-06 21:19:00,49.0,42.8,29.92,SW,214,0.0,2.0,79,0.00,,,0.00,WUHU216DAVISVP2,2013-10-07 02:19:00,
2013-10-06 21:24:00,48.9,43.0,29.92,SW,224,0.0,2.0,80,0.00,,,0.00,WUHU216DAVISVP2,2013-10-07 02:24:00,
2013-10-06 21:29:00,48.7,42.8,29.91,SSW,212,1.0,1.0,80,0.00,,,0.00,WUHU216DAVISVP2,2013-10-07 02:29:00,
2013-10-06 21:34:00,48.7,42.8,29.91,SW,223,1.0,3.0,80,0.00,,,0.00,WUHU216DAVISVP2,2013-10-07 02:34:00,
2013-10-06 21:39:00,48.8,42.9,29.91,SW,222,2.0,3.0,80,0.00,,,0.00,WUHU216DAVISVP2,2013-10-07 02:39:00,
2013-10-06 21:44:00,48.8,42.6,29.91,SW,225,1.0,2.0,79,0.00,,,0.00,WUHU216DAVISVP2,2013-10-07 02:44:00,
2013-10-06 21:49:00,48.5,42.6,29.91,West,267,0.0,2.0,80,0.00,,,0.00,WUHU216DAVISVP2,2013-10-07 02:49:00,
2013-10-06 21:54:00,48.4,42.8,29.92,SW,223,0.0,2.0,81,0.00,,,0.00,WUHU216DAVISVP2,2013-10-07 02:54:00,
2013-10-06 21:59:00,48.3,42.7,29.92,SW,234,2.0,2.0,81,0.00,,,0.00,WUHU216DAVISVP2,2013-10-07 02:59:00,
2013-10-06 22:04:00,48.4,42.9,29.92,SW,219,1.0,3.0,81,0.00,,,0.00,WUHU216DAVISVP2,2013-10-07 03:04:00,
2013-10-06 22:09:00,48.8,43.3,29.92,SW,221,3.0,3.0,81,0.00,,,0.00,WUHU216DAVISVP2,2013-10-07 03:09:00,
2013-10-06 22:14:00,49.1,43.5,29.91,SW,235,2.0,4.0,81,0.00,,,0.00,WUHU216DAVISVP2,2013-10-07 03:14:00,
2013-10-06 22:19:00,49.5,43.6,29.91,SSW,205,2.0,4.0,80,0.00,,,0.00,WUHU216DAVISVP2,2013-10-07 03:19:00,
2013-10-06 22:24:00,49.6,43.7,29.91,SW,229,3.0,4.0,80,0.00,,,0.00,WUHU216DAVISVP2,2013-10-07 03:24:00,
2013-10-06 22:29:00,49.7,43.5,29.92,SW,224,3.0,6.0,79,0.00,,,0.00,WUHU216DAVISVP2,2013-10-07 03:29:00,
2013-10-06 22:34:00,49.8,43.6,29.91,SW,214,5.0,6.0,79,0.00,,,0.00,WUHU216DAVISVP2,2013-10-07 03:34:00,
2013-10-06 22:39:00,50.1,43.9,29.92,WSW,239,7.0,7.0,79,0.00,,,0.00,WUHU216DAVISVP2,2013-10-07 03:39:00,
2013-10-06 22:44:00,50.3,44.1,29.91,SW,224,6.0,7.0,79,0.00,,,0.00,WUHU216DAVISVP2,2013-10-07 03:44:00,
2013-10-06 22:49:00,50.5,43.9,29.92,WSW,240,5.0,6.0,78,0.00,,,0.00,WUHU216DAVISVP2,2013-10-07 03:49:00,
2013-10-06 22:54:00,50.6,44.0,29.91,SW,214,5.0,7.0,78,0.00,,,0.00,WUHU216DAVISVP2,2013-10-07 03:54:00,
2013-10-06 22:59:00,50.6,44.0,29.91,SSW,212,5.0,7.0,78,0.00,,,0.00,WUHU216DAVISVP2,2013-10-07 03:59:00,
2013-10-06 23:01:00,50.7,44.1,29.91,South,188,5.0,7.0,78,0.00,,,0.00,WUHU216DAVISVP2,2013-10-07 04:01:00,
2013-10-06 23:06:00,50.8,44.2,29.91,SSW,203,3.0,7.0,78,0.00,,,0.00,WUHU216DAVISVP2,2013-10-07 04:06:00,
2013-10-06 23:11:00,50.9,44.0,29.91,SSW,205,2.0,7.0,77,0.00,,,0.00,WUHU216DAVISVP2,2013-10-07 04:11:00,
2013-10-06 23:16:00,50.8,43.9,29.91,SSW,208,4.0,7.0,77,0.00,,,0.00,WUHU216DAVISVP2,2013-10-07 04:16:00,
2013-10-06 23:21:00,50.5,43.6,29.91,SSW,212,5.0,6.0,77,0.00,,,0.00,WUHU216DAVISVP2,2013-10-07 04:21:00,
2013-10-06 23:26:00,50.4,43.9,29.91,SSW,201,3.0,6.0,78,0.00,,,0.00,WUHU216DAVISVP2,2013-10-07 04:26:00,
2013-10-06 23:31:00,50.5,43.9,29.91,SW,220,7.0,7.0,78,0.00,,,0.00,WUHU216DAVISVP2,2013-10-07 04:31:00,
2013-10-06 23:36:00,50.5,43.9,29.91,SSW,197,4.0,7.0,78,0.00,,,0.00,WUHU216DAVISVP2,2013-10-07 04:36:00,
2013-10-06 23:41:00,50.5,44.3,29.91,SSW,211,5.0,6.0,79,0.00,,,0.00,WUHU216DAVISVP2,2013-10-07 04:41:00,
2013-10-06 23:46:00,50.3,44.1,29.91,SW,215,4.0,6.0,79,0.00,,,0.00,WUHU216DAVISVP2,2013-10-07 04:46:00,
2013-10-06 23:51:00,50.3,44.1,29.90,South,181,4.0,6.0,79,0.00,,,0.00,WUHU216DAVISVP2,2013-10-07 04:51:00,
2013-10-06 23:56:00,50.3,44.1,29.91,SSW,199,6.0,8.0,79,0.00,,,0.00,WUHU216DAVISVP2,2013-10-07 04:56:00,